Wind_Speed
4 6 6 7 9 11 12 12 12 15 17 17 16 14 14 13 11 13 13 11 12 12 11 14 16 17 20 19 18 17 16 17 17 17 15 14 14 13 14 14 13 12 11 8 10 10 16 19 17 22 23 20 20 18 17 18 18 17 17 17 21 25 27 31 30 20 11 12 23 22 17 22 27 27 28 29 29 30 28 28 30 32 31 27 26 28
5 6 7 9 12 13 13 14 14 16 17 16 14 13 13 12 12 13 14 12 11 10 11 14 17 18 19 19 18 18 17 18 18 18 17 17 17 15 15 17 15 12 10 9 10 10 12 19 17 18 21 18 16 16 16 17 17 14 17 20 21 25 32 35 37 35 25 23 27 29 30 29 29 29 28 28 29 30 28 28 30 31 31 28 27 28
6 6 7 9 12 13 13 15 15 16 16 14 11 11 11 10 11 13 13 13 10 7 9 13 15 15 16 17 17 17 16 16 17 18 18 18 18 17 16 16 15 13 11 10 10 9 8 16 19 17 18 18 17 18 19 19 18 15 18 22 23 26 33 36 38 38 33 33 32 30 33 32 31 30 28 27 27 28 27 27 29 31 31 28 27 28
7 7 8 8 11 13 14 14 14 13 12 10 10 8 8 11 11 9 10 13 12 9 11 15 14 12 14 15 15 16 16 16 17 19 19 18 17 18 18 16 16 14 11 10 11 10 8 11 17 18 18 20 20 21 22 21 19 17 19 24 26 27 32 35 40 41 35 32 29 25 25 24 26 29 27 24 25 26 26 27 27 30 32 29 27 27
7 9 10 10 11 12 13 13 13 10 8 10 11 9 9 13 13 11 11 13 13 12 14 15 13 10 11 14 14 13 14 15 16 18 19 18 17 18 18 16 16 15 11 10 11 11 10 9 11 15 18 19 19 21 23 21 20 18 19 25 27 28 31 36 41 42 35 31 27 24 21 14 11 19 26 24 24 26 27 27 27 31 34 29 28 27
5 8 10 11 10 11 12 11 10 9 7 9 10 11 12 13 14 15 15 13 11 10 10 10 10 7 9 13 13 10 12 13 13 17 18 17 17 16 17 17 16 15 12 11 11 12 12 11 11 13 17 18 18 20 22 21 20 19 20 25 28 28 31 36 41 41 35 28 24 25 27 18 11 15 22 25 27 27 28 29 26 30 33 29 28 28
5 8 10 11 11 11 11 8 9 10 9 8 9 12 15 15 16 16 16 13 9 9 9 10 10 8 8 11 12 12 13 12 13 16 17 15 16 16 15 16 16 15 12 11 12 12 12 12 12 13 17 21 22 22 22 21 20 20 22 27 30 30 31 36 41 39 34 27 18 19 26 28 27 20 19 21 29 29 28 30 28 29 32 29 28 29
6 11 10 10 12 10 7 7 10 12 9 9 11 14 16 16 17 17 15 11 9 10 12 11 11 10 9 9 12 14 12 10 14 18 17 14 15 16 16 17 17 16 14 12 11 12 13 13 13 14 19 23 25 24 23 23 22 23 23 27 32 31 30 37 39 34 35 33 22 16 18 22 26 25 19 16 23 30 29 29 29 30 31 30 28 28
7 8 7 9 9 7 7 9 12 13 9 10 14 16 15 16 17 16 13 11 10 10 9 10 10 9 9 8 9 13 11 9 14 17 16 13 13 14 16 18 20 17 15 15 13 12 13 12 14 18 21 23 25 25 25 25 25 25 25 26 30 31 29 35 38 35 39 41 32 26 25 23 23 27 25 17 16 23 29 27 27 29 30 29 28 28
6 5 4 6 6 6 9 12 12 12 10 11 14 15 14 14 15 13 11 9 9 9 10 11 9 6 8 7 6 7 6 8 10 11 10 7 9 13 14 17 19 17 15 15 15 14 13 13 17 23 24 23 25 25 25 26 25 24 25 26 27 29 28 32 39 41 42 41 37 34 33 31 27 27 29 23 19 19 24 26 26 28 29 29 29 29
1 3 1 3 6 8 10 12 11 10 10 11 11 12 12 11 11 10 8 6 7 8 8 10 10 7 6 6 6 5 6 8 9 8 8 5 7 12 12 14 16 16 14 12 13 16 16 16 19 22 23 24 26 26 25 25 25 25 25 27 27 27 28 31 36 43 43 41 39 36 32 32 32 31 30 29 27 24 23 26 27 28 29 29 30 31
5 4 2 3 7 7 9 9 10 8 7 8 8 9 9 8 7 6 4 3 5 6 7 9 11 10 7 6 7 9 11 12 11 10 10 9 7 8 9 12 14 14 15 12 12 14 15 16 17 17 19 23 24 24 25 25 26 25 25 27 27 26 29 29 31 41 43 38 37 36 33 32 32 34 33 29 28 29 27 27 28 28 28 28 29 30
2 2 4 6 6 6 9 7 8 7 6 7 7 7 7 6 5 4 4 3 5 6 8 11 11 9 8 6 8 11 14 16 15 14 13 12 10 9 9 10 10 11 12 11 11 12 11 12 14 14 15 19 21 21 22 25 26 25 25 27 27 26 30 29 28 37 41 37 37 37 33 32 32 33 35 32 29 30 30 29 28 27 28 28 28 30
5 4 7 6 3 6 8 6 7 7 7 8 7 6 6 5 5 5 5 5 5 6 10 14 12 8 7 5 9 12 13 16 16 15 14 15 13 11 11 12 11 10 10 9 10 11 9 10 12 12 13 16 19 20 21 22 24 25 24 26 27 26 29 31 29 34 39 38 39 37 30 28 30 31 32 33 31 30 30 30 30 29 29 30 31 32
8 4 6 6 4 6 7 6 7 8 7 6 6 5 4 4 4 4 5 6 8 9 12 13 9 6 6 6 9 12 14 16 17 17 17 18 18 16 15 14 14 13 12 10 10 11 11 10 11 11 13 17 20 23 22 20 21 24 24 25 27 26 27 32 32 35 41 42 41 42 39 34 32 30 30 32 32 31 31 32 33 33 32 32 33 34
8 6 6 5 3 4 5 4 7 9 5 4 6 4 3 5 4 5 6 7 9 9 8 7 5 5 6 6 11 13 14 17 19 20 20 20 20 19 17 16 14 12 13 13 11 11 11 11 11 10 13 18 20 22 23 22 21 22 23 25 27 25 28 35 36 36 42 45 44 46 46 44 39 34 30 30 31 32 33 34 35 35 34 32 32 34
6 8 8 4 3 3 4 3 7 8 5 5 5 5 7 9 5 4 6 8 8 7 5 5 6 6 4 5 10 13 15 17 19 21 20 19 20 19 17 16 16 15 15 14 13 11 9 9 10 11 14 18 19 19 21 23 25 25 25 26 27 25 30 37 39 38 41 46 47 45 44 44 42 39 35 33 33 34 34 35 35 35 34 33 33 33
2 9 9 3 4 5 4 2 5 6 5 4 3 7 10 5 1 1 5 6 5 5 5 7 10 9 5 4 9 15 18 18 18 20 20 19 20 20 18 18 19 19 18 17 16 14 10 7 8 10 14 19 20 19 19 21 24 27 27 27 28 26 31 37 40 37 39 45 47 43 41 42 42 40 38 35 34 34 36 36 36 35 33 32 33 34
2 7 6 4 6 5 2 1 3 4 6 6 2 5 6 2 2 3 4 4 5 6 5 8 12 8 5 4 10 17 19 19 19 19 19 20 20 19 19 20 21 20 18 17 17 14 9 6 8 10 13 18 20 19 20 21 22 24 26 27 28 27 32 38 39 36 38 42 43 41 41 42 42 40 38 35 33 32 34 35 34 35 34 32 32 33
3 4 5 3 7 6 1 2 1 3 7 8 4 4 5 3 4 5 4 4 5 6 6 8 9 5 4 5 12 18 20 20 20 19 18 21 20 18 18 19 19 19 17 16 17 16 12 7 9 12 14 17 19 20 23 25 25 25 25 26 27 26 32 38 38 37 38 37 36 39 41 41 40 39 37 35 33 29 28 28 24 23 27 30 32 31
5 3 6 7 3 4 1 1 3 3 4 5 6 8 7 4 4 4 3 3 4 5 6 7 7 4 3 5 12 19 20 18 19 19 18 19 20 19 19 18 18 18 18 17 16 17 16 11 9 11 13 18 19 21 23 24 25 25 25 26 27 26 32 37 36 36 36 34 33 36 39 41 40 38 36 34 34 29 24 26 26 21 18 21 28 31
5 4 7 8 6 2 1 2 5 7 8 7 6 6 6 5 5 5 2 2 3 4 6 6 7 4 1 3 11 16 17 17 19 20 20 20 20 19 19 19 19 19 18 18 16 16 17 13 9 10 12 15 18 19 21 21 22 23 23 25 26 26 33 36 34 33 33 32 33 35 37 39 39 37 36 34 36 33 25 25 32 30 23 21 23 28
5 3 6 8 7 2 5 7 7 10 11 10 8 6 5 4 5 5 4 5 5 6 6 5 6 4 2 4 11 13 15 16 17 19 20 20 19 18 18 19 19 19 19 19 17 15 15 15 10 7 10 13 17 17 17 17 16 19 23 25 23 25 33 35 30 32 34 32 34 38 38 38 36 36 36 35 36 38 33 29 30 32 31 27 24 26
5 3 5 7 5 2 7 7 7 6 4 6 7 6 5 4 5 3 5 5 5 5 5 5 6 5 2 7 12 13 15 16 17 20 21 18 17 17 18 19 18 18 19 18 17 14 13 15 11 5 7 11 14 14 15 16 14 14 18 20 16 18 29 36 33 32 35 34 33 36 38 38 37 35 36 36 36 37 38 36 33 31 31 31 27 27
4 4 5 7 5 1 2 2 3 2 3 3 4 6 6 7 10 6 4 4 3 4 7 7 7 5 6 10 14 15 16 18 19 19 19 16 14 15 15 16 16 17 18 17 17 16 15 16 12 4 5 10 12 14 15 17 17 14 14 15 14 14 21 34 36 34 37 36 32 34 37 37 38 36 36 38 38 36 37 37 36 34 32 31 31 30
5 5 5 6 6 5 4 4 3 4 4 2 3 6 7 9 11 7 5 4 4 7 9 8 7 8 12 15 18 17 18 22 21 19 18 15 14 14 12 13 14 14 16 17 16 16 15 15 13 6 6 11 14 17 17 17 17 17 18 21 21 18 19 24 26 28 35 37 32 32 34 34 36 36 34 35 36 35 35 34 34 36 34 32 34 33
4 5 5 5 6 7 6 6 6 5 2 1 3 6 8 8 9 7 5 5 7 9 8 7 8 15 18 18 20 20 21 24 22 20 21 17 14 13 10 11 12 11 14 16 14 15 15 14 15 10 10 12 15 16 17 17 18 17 19 24 22 18 20 22 19 16 24 31 30 29 31 33 35 35 31 30 31 31 32 31 31 34 34 33 35 36
5 6 8 9 9 9 8 7 8 3 2 3 4 6 8 9 10 9 6 7 9 8 7 9 14 18 17 17 20 22 23 23 21 21 20 17 15 13 11 11 11 11 13 15 14 16 16 14 15 13 11 13 13 14 15 16 19 19 21 28 28 22 22 25 24 15 13 18 25 28 31 33 33 33 31 30 29 28 28 29 30 32 34 34 35 35
5 6 9 11 13 14 9 6 6 2 5 6 4 5 8 10 12 11 8 9 8 7 9 14 18 18 15 16 20 23 23 22 22 21 18 16 16 13 11 12 12 9 9 13 15 15 15 14 12 14 13 12 11 12 13 14 17 19 18 27 32 30 26 27 29 24 19 17 20 26 31 32 30 29 30 29 28 29 29 28 29 30 32 33 33 33
3 6 10 12 14 15 7 2 3 3 9 6 3 4 6 8 9 8 9 9 7 9 12 14 17 17 13 15 19 21 22 20 19 20 18 18 19 16 14 15 16 14 11 10 13 13 15 15 13 14 14 12 12 11 12 15 16 17 17 24 32 32 30 31 29 26 27 26 23 24 26 29 29 27 27 28 27 28 29 28 28 29 30 30 30 30
4 7 12 12 11 9 4 2 3 5 11 6 2 6 8 9 9 8 9 9 8 10 13 13 14 14 11 15 18 19 20 19 20 22 22 20 20 19 18 17 17 19 17 13 13 13 14 15 14 15 14 12 13 12 14 16 16 18 17 24 34 33 35 37 33 25 24 24 23 24 25 26 26 25 25 27 26 25 27 28 29 30 30 27 23 24
6 7 9 10 8 6 4 3 0 7 10 6 5 12 13 11 12 10 8 8 10 12 15 13 11 11 12 17 19 19 21 23 23 24 21 18 18 18 19 19 18 18 19 17 16 13 13 14 15 15 14 13 13 14 17 16 14 17 16 26 35 34 32 32 29 24 22 22 22 24 24 23 24 25 24 25 25 24 24 27 29 29 28 24 22 25
7 7 6 8 7 7 10 8 4 9 5 1 7 14 14 11 12 13 11 11 11 9 9 12 12 13 16 18 19 21 24 25 24 22 18 15 16 18 19 19 19 19 19 19 17 15 13 13 14 14 12 13 13 17 20 18 15 16 16 26 34 33 29 25 22 18 19 22 22 21 21 18 19 22 22 22 23 23 23 25 27 28 26 22 23 28
8 7 6 6 5 8 13 11 1 6 2 3 6 12 15 14 15 16 14 14 10 6 7 10 13 16 18 17 17 20 22 23 23 21 16 15 17 19 20 19 18 19 19 19 18 17 14 12 12 13 12 15 17 19 21 19 17 17 17 23 28 31 31 26 23 19 17 19 20 21 24 24 20 19 18 19 20 21 23 25 24 25 24 22 23 26
7 7 6 5 5 7 10 9 5 1 3 3 6 12 13 12 14 16 15 10 6 9 13 15 17 19 19 17 16 17 21 24 24 19 17 20 21 20 19 18 18 18 18 18 18 17 15 13 12 12 12 16 19 19 20 18 18 17 17 21 22 24 25 20 19 19 17 17 18 18 23 29 26 20 17 18 20 20 22 24 22 21 21 21 23 24
7 6 5 4 6 6 6 7 5 2 6 5 11 13 12 12 12 15 14 8 6 10 14 17 20 20 19 19 17 18 22 23 19 13 16 23 24 21 19 18 19 19 18 18 16 14 14 14 13 13 13 15 18 17 20 18 18 17 16 20 21 22 26 23 19 19 19 20 22 22 24 28 26 21 19 21 22 21 20 21 21 19 19 19 21 23
7 7 5 4 5 6 6 6 2 6 4 7 14 13 13 14 13 13 12 7 7 11 12 16 20 20 19 18 18 20 22 19 13 11 16 22 23 23 22 20 21 21 18 15 12 11 12 13 15 15 13 14 17 16 20 19 18 18 16 19 20 18 22 24 21 22 23 24 25 26 26 25 23 21 21 23 26 25 22 22 21 20 19 19 18 18
7 7 7 6 5 6 7 5 2 2 1 8 14 15 16 16 14 14 10 6 8 14 13 14 20 21 19 17 17 19 18 13 10 11 17 22 23 22 22 21 22 21 16 13 9 6 10 12 14 13 11 14 17 15 19 19 19 19 16 19 21 18 17 18 17 19 23 24 24 23 23 23 22 22 21 24 28 28 26 25 25 23 21 20 17 15
10 8 7 6 5 6 7 6 4 3 4 9 15 17 18 17 16 13 8 4 10 15 13 13 18 20 17 17 17 16 14 13 12 12 17 24 23 20 20 21 22 20 16 15 13 5 3 6 8 7 10 14 15 15 18 19 18 18 16 18 21 19 16 15 14 14 16 21 23 21 22 22 21 20 21 23 27 29 30 28 26 24 23 21 19 19
10 7 6 6 6 7 7 6 4 3 4 12 16 16 17 17 14 10 6 6 12 14 11 13 17 17 16 15 14 13 15 16 15 15 19 23 21 20 21 19 20 20 16 15 18 19 16 11 7 7 10 10 10 13 16 18 17 16 16 17 19 18 16 16 18 18 18 19 21 20 20 20 19 20 20 21 24 28 29 27 24 24 25 23 22 22
7 6 6 7 6 7 7 7 4 2 5 14 16 15 16 14 9 7 7 10 14 13 10 12 15 15 15 15 11 11 13 15 15 16 20 21 20 20 22 20 20 22 21 21 25 28 26 22 18 11 5 7 9 13 16 18 16 14 14 15 16 15 14 16 19 21 18 18 20 19 19 18 18 20 21 21 24 25 25 25 24 23 23 24 25 26
6 6 5 6 6 6 5 6 5 2 7 14 15 13 13 10 5 6 9 12 13 11 10 13 14 13 15 14 10 10 13 15 17 19 20 21 20 20 21 22 21 23 26 29 32 33 27 23 23 16 3 5 7 11 13 14 13 12 13 14 13 14 16 15 17 18 13 17 18 17 19 20 20 22 22 20 21 23 23 24 22 20 19 21 24 26
5 6 6 6 5 5 5 6 5 4 8 15 14 10 9 8 6 7 11 13 12 9 10 13 13 12 13 12 10 12 15 17 20 21 20 20 20 20 22 23 21 21 23 25 27 30 27 20 16 11 4 2 2 3 5 7 9 8 9 12 13 14 17 17 17 15 13 20 21 19 19 21 23 25 25 22 22 23 24 24 21 17 16 18 22 25
3 5 5 4 4 5 5 6 5 5 9 11 10 8 9 9 8 9 10 12 12 9 8 10 11 12 13 12 10 12 15 18 20 20 20 20 20 21 21 21 20 20 20 21 24 28 27 21 14 9 3 2 1 3 4 6 5 4 4 7 9 10 13 15 15 9 7 15 21 22 21 21 22 25 26 25 25 23 22 23 24 21 17 18 21 23
3 5 4 3 3 5 5 4 4 6 9 9 7 8 11 11 10 12 12 12 12 10 8 7 10 13 14 13 11 10 12 16 18 19 19 18 19 20 20 20 21 21 20 22 25 28 27 23 19 15 8 4 7 8 8 7 6 5 4 3 4 5 6 8 9 4 5 7 16 21 25 23 22 24 23 23 26 25 22 23 24 24 24 23 22 21
2 5 4 3 4 5 2 3 5 9 9 8 8 9 10 11 11 11 12 12 13 12 8 6 9 14 15 14 13 10 10 14 17 18 18 18 18 20 21 21 23 24 24 24 26 27 25 22 22 20 13 5 2 3 8 11 9 6 4 5 7 6 4 5 4 3 8 10 17 17 25 23 20 23 23 21 23 25 24 22 21 22 26 25 21 19
1 3 5 5 7 6 2 2 7 11 9 8 10 10 11 12 11 11 11 12 13 13 11 9 10 13 14 13 12 11 11 12 15 17 16 17 17 19 19 19 21 23 25 24 25 26 25 22 22 23 21 19 20 15 4 6 11 11 7 6 8 9 8 6 3 7 10 13 15 11 16 21 20 20 21 20 21 21 22 24 26 26 26 25 21 20
1 2 5 7 7 6 5 7 10 11 8 8 10 9 10 11 12 12 12 12 12 13 14 13 12 12 12 12 12 11 11 11 13 15 15 15 15 16 17 18 19 22 26 27 28 27 26 23 22 22 21 22 25 26 22 13 2 7 8 6 7 9 9 8 5 9 14 16 13 11 11 15 17 17 18 19 19 18 17 22 26 26 26 27 26 25
4 3 5 7 7 6 5 9 11 10 8 9 11 10 10 11 12 13 13 14 14 14 15 15 13 11 11 11 11 11 11 10 10 12 14 14 15 15 16 19 21 24 27 28 28 27 26 24 23 23 22 22 24 26 27 27 23 14 5 1 3 4 5 9 8 7 11 15 14 15 16 15 14 15 18 20 20 17 14 17 21 22 22 25 28 27
5 4 5 6 6 5 6 8 9 8 7 8 11 11 11 12 12 12 13 15 15 16 16 17 16 13 11 11 10 11 11 9 9 10 11 12 15 16 17 20 23 25 27 28 29 28 27 25 24 23 23 23 24 24 24 24 25 25 21 15 10 6 5 7 5 7 11 12 12 15 18 18 17 16 18 20 20 18 15 15 17 20 20 22 25 26
2 2 4 5 5 5 7 7 7 6 6 8 10 11 10 11 11 12 13 14 15 15 16 17 16 16 15 13 12 11 10 8 8 9 9 11 15 20 22 22 22 24 26 28 29 30 30 28 27 26 25 23 23 23 22 21 22 24 24 22 19 14 11 11 7 4 12 15 16 20 21 21 19 18 20 19 18 18 17 14 13 14 16 19 22 23
Wind_Direction
289 288 274 286 296 290 292 288 277 282 289 292 291 289 288 286 283 283 281 267 256 261 256 250 254 256 259 263 263 264 261 256 255 255 251 237 231 235 237 236 231 233 242 239 249 233 201 207 201 183 186 188 187 198 208 212 212 193 170 166 179 192 197 197 199 208 229 197 173 175 189 186 182 183 181 179 182 183 181 182 183 181 182 189 189 181
289 276 282 298 303 300 297 294 293 292 291 292 292 290 288 285 287 287 287 283 272 267 265 261 259 257 259 262 262 263 263 260 257 254 252 245 237 233 231 235 234 225 229 235 244 249 203 196 202 184 179 185 183 198 215 218 218 193 173 180 183 188 193 194 198 201 197 190 185 179 180 185 187 188 183 178 180 182 181 181 183 181 181 190 191 182
283 283 304 312 310 309 302 294 293 294 294 293 286 285 284 286 290 290 290 290 282 270 271 271 269 266 265 266 265 263 261 258 256 256 255 251 246 240 231 230 237 228 213 217 226 244 217 189 194 181 172 185 191 204 216 219 220 195 170 179 182 185 191 192 195 198 196 191 191 186 182 183 186 187 184 179 177 179 180 178 181 183 180 188 192 183
306 312 319 318 312 308 303 299 298 297 295 288 282 283 284 289 293 289 291 295 295 291 284 281 277 274 272 270 270 269 269 268 260 257 255 253 250 246 239 226 229 233 214 204 210 226 236 201 192 185 180 189 196 205 212 213 214 196 169 173 181 187 192 194 194 196 199 198 195 192 191 194 188 180 179 179 176 177 180 176 177 181 181 185 190 187
310 323 316 314 312 307 306 305 304 300 296 295 295 294 291 296 299 296 300 304 298 288 282 283 279 271 270 268 266 263 265 271 272 267 259 254 252 250 249 235 223 227 219 206 203 207 226 224 203 192 186 192 203 207 207 208 209 196 175 172 182 193 196 197 197 196 196 196 199 198 198 211 203 182 177 175 176 177 181 180 176 180 183 184 186 188
321 322 311 315 312 310 312 308 310 313 306 302 300 297 297 300 301 299 304 306 295 286 284 287 284 276 275 270 269 269 262 260 261 261 259 256 255 249 247 241 226 224 223 213 204 202 210 217 217 205 191 197 212 213 205 205 207 198 182 176 183 195 200 200 198 196 193 193 200 198 191 188 185 201 196 179 174 178 182 184 180 179 183 186 186 186
313 312 316 320 315 315 319 317 321 321 308 300 307 308 306 305 303 301 304 301 288 287 293 292 286 282 281 274 275 278 271 271 268 258 256 259 257 249 245 241 227 220 225 222 209 204 205 205 211 211 202 203 213 217 208 205 207 199 187 181 187 194 198 202 199 192 189 191 199 200 194 182 171 193 219 192 175 177 183 184 182 180 182 186 187 185
308 313 319 315 316 321 324 323 324 324 310 303 316 315 309 306 303 300 298 291 285 290 289 281 277 279 282 277 278 278 273 283 285 269 259 253 249 245 242 241 233 218 216 223 216 208 207 205 205 209 209 205 210 215 209 205 207 202 192 186 190 194 195 200 197 189 190 195 196 196 204 196 176 182 213 218 188 176 178 182 182 182 183 186 187 184
335 328 329 317 318 322 326 328 326 324 308 304 317 314 307 303 297 295 291 284 288 295 288 278 277 279 281 282 283 281 281 285 278 268 261 250 246 249 240 236 237 226 213 213 214 214 212 208 204 208 213 208 208 212 207 205 208 203 196 191 189 189 191 195 192 190 195 198 194 187 195 206 197 185 190 222 230 185 174 180 181 180 183 188 187 184
354 11 352 309 316 325 329 328 321 317 306 308 316 309 304 299 291 288 282 281 289 283 275 283 291 289 287 295 294 289 299 301 290 285 281 255 240 250 242 233 234 230 220 211 206 208 212 214 209 206 212 211 207 211 207 202 204 203 197 194 189 182 184 192 194 196 198 196 192 187 191 195 194 189 182 195 226 205 177 180 183 182 185 188 187 185
131 94 201 289 347 340 330 324 312 307 307 314 317 311 310 302 290 284 273 277 285 270 275 299 316 319 299 295 304 318 315 297 298 315 318 296 244 242 241 236 236 233 227 217 206 203 203 212 214 207 209 212 209 211 209 199 198 200 196 197 192 180 180 188 194 200 200 194 190 188 192 192 186 188 185 183 199 202 186 183 186 186 187 189 188 187
161 153 199 58 43 346 329 326 315 316 320 327 328 320 317 304 292 288 268 259 267 269 290 311 320 314 287 284 317 329 328 318 315 317 316 310 282 257 248 242 244 242 234 225 215 210 201 201 210 208 207 210 209 209 207 199 196 196 194 198 197 184 179 181 188 198 198 191 189 190 192 193 186 186 187 186 192 194 189 186 186 187 188 191 191 187
9 84 21 53 76 357 339 338 334 341 348 346 340 331 328 321 320 322 306 291 270 269 294 308 313 300 276 294 332 335 341 339 325 312 310 309 298 286 273 258 254 252 245 234 222 218 206 195 199 205 207 207 207 209 205 198 194 195 194 196 200 190 179 179 183 192 193 188 190 193 191 190 187 186 188 190 194 192 189 188 186 187 188 191 193 189
350 43 25 10 55 22 353 354 360 347 342 345 342 340 333 324 330 323 313 313 295 282 303 311 307 292 282 316 340 339 343 340 329 325 329 329 324 313 299 282 268 264 264 255 235 223 211 199 195 198 204 202 205 212 212 201 191 193 195 194 200 195 179 178 181 184 188 189 191 193 193 192 191 190 189 191 196 193 188 187 189 192 191 191 193 191
325 354 31 2 9 20 4 20 11 333 325 336 336 339 335 336 342 317 311 318 310 305 308 309 306 300 309 342 358 353 348 342 343 352 351 347 344 338 327 305 279 265 265 261 246 231 212 201 196 194 199 198 203 210 214 211 195 192 198 195 200 197 179 176 178 181 187 190 191 192 193 197 199 196 193 193 197 195 190 188 191 196 195 192 194 193
323 334 30 40 26 3 9 33 3 340 333 326 331 345 328 317 304 279 290 291 285 296 303 297 293 295 310 7 23 12 359 349 347 351 349 346 341 336 333 323 304 285 272 262 255 243 220 204 197 194 195 194 200 205 207 214 206 197 199 199 201 195 176 174 178 182 190 191 192 194 192 195 198 196 194 195 198 198 194 192 193 197 197 194 194 193
323 319 342 39 92 40 37 28 9 7 351 321 340 347 309 300 292 272 288 283 272 282 293 290 296 304 322 30 26 11 1 354 349 346 343 340 335 329 328 326 320 315 300 283 269 260 245 221 204 193 190 190 195 199 201 210 210 204 202 201 204 189 169 175 182 186 193 193 193 194 193 195 197 194 193 195 199 200 198 196 195 197 198 196 194 193
236 296 315 30 81 68 85 81 41 29 3 354 1 330 310 298 93 57 293 296 297 288 297 313 315 329 359 7 4 2 356 352 348 343 337 334 333 328 324 321 318 318 315 304 289 272 258 238 216 197 186 187 191 196 203 209 208 206 203 203 205 185 165 177 187 189 194 195 195 194 193 197 198 197 195 194 197 201 200 200 197 198 200 198 195 192
211 290 309 43 70 72 102 138 74 56 46 60 65 332 336 341 20 347 308 314 317 295 305 323 319 337 27 4 354 356 352 349 345 338 332 328 327 324 318 315 313 312 312 312 305 289 266 245 233 214 186 184 190 196 210 216 212 209 203 203 208 188 170 180 189 191 194 196 195 194 194 197 198 200 200 197 199 203 204 203 198 197 199 197 196 194
319 297 303 3 90 107 242 285 69 58 54 61 61 33 27 359 314 313 303 302 306 304 315 321 317 343 45 11 354 352 347 345 339 331 327 321 317 314 310 308 307 307 305 307 309 301 286 269 249 225 186 180 191 198 210 216 213 211 204 203 209 193 176 182 188 190 193 193 194 194 194 197 198 201 204 204 205 209 212 215 210 205 204 196 193 195
349 290 292 322 70 108 317 339 71 59 50 50 45 33 24 7 321 297 272 277 303 318 319 310 310 340 27 355 353 351 342 338 334 326 321 315 310 307 303 300 298 298 298 298 302 303 295 280 262 242 202 186 193 201 209 210 206 207 203 202 208 196 181 185 187 186 189 190 191 192 193 197 199 200 204 208 212 215 218 219 215 216 225 214 198 195
354 305 297 310 316 336 58 105 83 87 84 68 58 41 25 19 357 330 309 327 329 313 307 305 311 323 78 354 353 348 334 329 327 320 315 311 307 303 298 295 292 290 291 291 292 298 297 285 265 256 230 200 196 203 208 205 202 204 203 203 206 193 183 188 187 184 187 188 186 187 189 194 199 200 204 208 212 217 222 219 210 205 215 231 220 203
358 309 288 294 304 322 136 128 104 109 107 91 79 53 30 35 24 352 318 325 320 294 295 311 312 287 168 14 350 337 325 322 319 315 313 310 305 302 296 292 289 285 284 286 287 290 295 289 269 256 251 221 201 201 202 199 201 201 198 201 204 192 184 188 191 186 188 188 184 184 185 187 191 196 200 205 210 215 219 220 216 207 204 215 229 221
352 320 296 301 310 125 140 132 123 139 124 90 73 44 39 47 20 324 274 293 300 304 326 323 296 275 307 356 337 324 322 319 314 314 312 307 305 303 299 294 290 285 281 282 285 285 289 286 270 251 265 235 197 194 200 198 201 196 190 193 199 196 187 188 194 192 186 185 182 182 184 184 185 189 193 199 206 211 214 217 217 215 210 206 214 227
323 315 316 315 319 135 156 141 154 252 340 66 72 35 36 25 5 340 278 279 286 346 354 319 282 281 307 323 320 320 321 315 314 316 310 304 302 298 297 295 290 286 282 280 284 286 288 285 270 236 267 254 209 197 201 200 196 180 176 192 205 211 196 187 192 192 184 181 179 177 183 185 185 187 191 197 202 205 209 212 211 212 214 207 204 217
299 301 309 315 322 327 326 333 316 312 339 81 83 27 18 20 15 354 314 308 312 336 333 297 277 297 302 310 317 322 323 318 317 316 310 303 295 288 288 291 290 290 286 283 283 285 287 289 278 231 215 250 229 202 196 196 189 174 179 195 203 218 216 195 192 192 184 179 175 174 181 186 187 188 192 198 204 205 206 209 210 209 210 210 204 207
303 300 308 296 286 290 298 305 301 299 314 63 51 15 0 11 13 351 335 334 317 313 308 288 303 311 307 313 323 326 326 323 319 319 315 306 293 287 282 280 282 285 287 286 285 284 283 287 288 262 215 234 237 210 195 189 182 176 180 181 185 213 216 190 184 195 187 178 174 175 181 185 188 191 194 199 206 209 208 208 209 207 206 208 208 204
311 301 310 295 278 281 283 284 290 291 123 94 54 11 353 1 1 351 342 323 312 307 303 307 316 312 306 315 326 327 325 321 317 316 312 303 297 293 282 279 277 270 276 282 281 282 280 280 289 280 240 230 238 222 204 191 186 188 178 164 173 204 204 178 175 193 197 178 171 175 182 185 186 188 191 197 204 208 209 207 205 207 206 205 207 205
315 302 309 307 304 305 299 269 279 337 100 101 65 11 353 358 354 344 324 309 312 309 298 305 309 304 303 318 325 323 320 315 311 309 307 306 310 302 291 302 306 290 278 279 278 281 282 279 284 284 260 235 238 231 211 202 198 196 176 157 170 195 197 177 175 186 198 190 173 174 185 189 187 184 186 190 196 199 203 204 203 207 210 206 204 204
322 311 322 319 310 311 319 215 240 97 107 108 47 14 357 349 341 325 309 305 302 288 285 296 302 298 304 320 320 315 313 310 307 310 315 321 325 323 318 325 325 316 306 287 279 279 279 276 274 281 272 240 233 234 217 211 203 197 182 155 162 186 197 184 176 181 188 188 180 178 184 189 187 184 185 188 192 195 198 203 205 209 215 214 211 207
327 324 332 322 308 320 12 155 233 116 123 140 28 15 356 343 340 329 315 316 313 298 294 298 299 299 313 322 317 313 314 316 318 322 326 327 328 329 329 329 323 315 311 300 286 277 275 276 270 273 277 252 229 225 226 219 202 199 187 145 147 175 195 191 184 184 185 184 183 182 182 184 184 183 185 187 191 194 197 204 207 209 216 220 221 216
329 331 329 317 316 333 340 301 149 116 134 152 32 12 359 351 344 332 318 321 321 309 307 316 318 315 320 321 318 319 323 327 327 326 323 318 321 329 330 325 316 309 305 299 290 277 267 272 271 268 274 265 233 215 224 222 202 206 186 139 144 170 189 194 191 183 181 185 188 186 182 178 177 179 183 184 186 189 194 203 204 206 214 219 221 220
336 337 325 322 323 314 319 336 92 127 138 52 14 3 358 352 336 327 324 322 318 309 317 330 328 319 319 321 323 324 328 331 328 320 315 314 322 330 328 320 313 308 302 293 286 275 256 254 265 265 269 272 243 212 217 216 201 211 192 149 148 162 175 194 203 189 183 187 186 188 188 182 179 181 180 177 180 184 190 198 200 205 212 210 211 215
343 337 318 322 318 307 320 334 83 139 77 23 12 3 1 350 335 331 324 316 319 341 348 330 320 319 321 322 323 322 326 329 320 310 314 331 334 329 324 317 306 298 292 286 279 270 251 235 247 255 262 275 255 218 213 214 203 208 196 164 156 157 163 183 195 189 192 190 184 187 188 186 189 189 180 173 175 180 187 193 195 201 209 206 201 206
340 329 316 322 315 309 320 326 325 73 94 64 17 14 8 348 335 329 320 317 352 2 347 336 329 327 325 322 322 322 325 324 313 306 327 342 337 327 323 315 299 288 285 287 281 267 247 227 230 242 248 269 261 223 208 214 209 204 190 171 165 156 154 171 182 176 184 192 194 199 193 186 187 186 181 180 178 178 184 191 194 197 204 206 202 201
338 322 315 319 318 318 320 327 341 130 135 64 21 15 4 347 343 337 327 337 20 2 348 342 334 329 328 328 327 327 327 322 309 312 341 342 332 325 321 314 306 302 299 298 286 261 238 217 217 231 234 254 261 225 203 208 208 204 189 173 171 159 154 170 183 176 179 189 195 203 201 193 189 182 181 187 188 185 186 189 194 196 198 202 206 206
348 328 321 329 335 339 331 338 57 147 149 29 14 5 355 348 347 340 322 315 354 359 355 346 336 332 333 333 331 329 327 322 315 329 342 335 327 323 322 322 322 321 317 310 289 250 223 206 211 224 228 250 261 225 201 204 201 199 187 167 169 172 166 173 181 177 181 190 192 193 194 192 189 183 183 190 192 193 194 196 198 197 194 195 203 209
359 335 333 344 347 349 338 336 63 137 321 5 2 355 353 347 340 334 311 292 354 1 357 347 340 336 334 334 333 330 328 329 334 336 334 330 326 326 329 333 334 336 341 339 314 237 196 193 205 216 228 257 260 223 199 201 196 193 185 162 167 183 180 177 183 182 183 189 190 187 185 185 184 179 180 188 194 195 196 198 200 198 195 194 195 205
11 343 340 359 356 354 346 337 6 32 16 3 355 350 351 344 335 330 308 298 354 355 351 347 341 336 334 335 336 337 340 346 342 333 329 329 328 331 336 339 339 344 356 0 357 12 137 169 193 232 259 257 243 210 197 199 190 187 184 167 169 181 178 175 192 202 193 186 186 187 184 183 182 178 179 186 193 195 194 193 197 198 198 195 186 195
16 346 346 12 1 345 342 344 17 72 29 1 355 353 350 339 330 336 337 329 340 346 351 346 339 335 334 337 343 348 350 346 334 324 326 327 328 337 343 343 343 347 358 9 10 12 16 17 360 300 272 246 218 201 199 196 188 185 181 168 169 178 177 173 188 209 213 196 184 179 174 176 180 182 186 190 191 192 193 193 195 196 197 192 180 195
8 348 355 15 360 340 343 351 359 80 30 4 355 353 349 333 321 351 352 327 328 340 350 339 332 334 339 343 352 352 344 339 328 324 330 333 336 344 347 346 347 350 0 12 12 9 7 358 342 319 250 199 204 209 202 192 187 182 170 162 164 173 177 180 196 212 211 187 176 171 168 176 186 185 189 197 195 190 191 193 194 194 198 191 182 197
353 344 1 13 355 342 353 353 336 351 22 2 348 351 358 348 341 352 335 324 330 342 344 335 332 337 341 346 356 347 336 337 337 336 340 342 343 348 350 351 353 355 2 9 9 4 358 343 333 328 290 187 202 210 199 183 171 161 157 159 162 169 176 190 217 227 200 168 176 186 180 181 188 186 185 190 191 187 188 193 195 196 203 203 197 203
351 338 354 9 359 342 350 357 344 333 356 354 348 353 6 4 356 341 328 330 336 339 340 338 336 338 338 341 355 351 341 343 346 346 346 345 347 352 355 356 357 358 3 8 5 356 348 333 321 311 270 206 209 206 172 150 148 150 157 158 157 172 188 202 224 230 184 164 181 195 186 179 184 189 189 182 178 183 187 192 194 194 203 215 210 202
10 348 352 3 359 342 339 355 3 340 339 351 356 353 356 358 353 341 337 335 335 341 350 342 334 338 339 338 349 355 350 349 349 348 347 348 351 354 357 359 359 359 2 3 359 353 347 339 325 305 269 129 164 205 170 148 146 127 114 131 143 171 195 206 223 229 156 163 187 190 181 178 181 187 193 190 184 182 182 185 191 193 205 226 217 196
9 350 345 313 312 343 344 338 357 353 342 350 1 353 351 356 354 349 345 336 334 348 4 349 333 337 340 339 346 358 359 354 351 349 350 351 351 353 357 2 3 2 1 1 360 356 352 351 346 328 298 203 190 200 186 171 154 117 96 121 152 172 182 197 223 220 131 196 219 194 174 175 178 179 186 191 190 189 186 185 188 189 200 220 222 202
351 330 330 304 324 2 358 270 337 357 350 348 356 355 354 357 357 353 346 338 339 349 1 358 343 340 342 346 351 359 6 0 354 351 352 353 354 354 357 2 5 5 3 2 2 357 355 2 4 351 337 327 289 219 183 170 156 140 160 187 184 190 194 197 214 151 150 214 241 206 173 170 176 179 181 182 185 190 192 190 191 194 198 205 211 207
88 324 326 328 339 350 339 316 355 357 351 350 354 355 357 358 355 353 347 341 341 344 349 354 351 348 350 353 355 1 10 8 0 355 355 356 356 354 355 358 3 7 6 4 2 0 3 9 8 2 1 1 355 349 333 181 171 169 179 195 193 198 210 206 157 120 162 216 257 245 181 168 167 175 180 180 182 185 186 188 194 198 195 192 195 200
49 326 324 331 336 337 354 15 5 349 347 358 357 354 358 356 352 353 350 343 342 344 347 351 353 357 1 358 355 1 10 14 9 2 359 358 356 354 355 356 360 5 7 8 6 6 10 12 7 4 5 2 355 354 355 358 15 167 175 199 205 197 209 223 191 138 165 198 238 264 223 181 165 168 175 181 186 187 188 193 196 195 192 193 198 200
333 328 330 331 330 332 356 9 358 342 343 354 353 356 1 355 351 353 349 346 346 347 349 353 356 2 10 6 1 2 9 19 17 7 4 2 356 354 353 353 358 4 6 8 10 10 12 12 8 5 5 3 358 356 0 6 7 9 16 299 239 193 210 240 233 184 176 190 208 229 224 201 185 182 184 189 193 196 203 207 203 199 199 204 210 212
336 338 342 333 330 341 353 356 351 339 330 337 346 356 2 356 354 354 351 350 350 347 350 356 358 359 6 12 13 8 7 16 18 11 11 8 360 355 352 352 357 3 4 6 10 13 14 14 11 8 6 5 2 359 1 6 5 7 12 10 358 354 334 309 279 210 203 207 222 232 221 205 202 202 198 199 199 199 204 206 201 200 199 200 207 214
353 343 349 339 332 341 344 343 341 332 320 327 342 355 1 357 354 354 353 352 350 348 350 356 360 358 358 5 17 17 8 12 21 18 18 16 7 1 358 355 357 360 2 6 9 12 13 13 11 11 8 5 3 1 1 4 4 5 7 5 360 354 343 343 350 246 221 218 231 238 222 205 204 204 200 200 201 197 194 190 191 197 195 192 198 205
Height
743 752 757 757 755 751 746 744 744 742 739 739 739 738 736 735 732 724 719 715 714 722 724 722 723 722 716 708 702 699 697 697 697 696 695 695 698 699 698 697 697 697 695 692 693 694 694 697 700 701 703 706 709 711 714 716 717 720 722 724 728 734 740 741 745 751 754 754 754 757 762 764 765 767 767 768 770 771 773 776 780 782 784 787 788 788
744 758 758 751 748 744 742 740 738 738 738 738 740 740 736 734 729 720 716 711 707 717 721 716 717 715 708 704 699 697 697 696 695 695 694 693 694 694 694 695 694 693 693 693 694 693 693 695 698 700 702 704 707 709 713 714 717 719 721 723 726 730 733 736 741 747 749 751 753 753 755 759 762 763 764 766 768 770 772 775 779 781 783 786 788 787
752 756 752 746 744 742 742 739 739 739 739 741 740 740 740 733 727 721 714 709 706 713 717 713 713 710 702 699 697 694 695 693 691 691 691 690 690 690 689 691 691 691 692 693 694 693 693 694 696 699 701 703 706 708 712 714 716 719 720 722 725 727 730 733 738 742 744 746 750 752 753 755 758 760 761 764 766 769 772 774 777 779 781 784 787 786
761 755 746 744 745 745 745 741 741 742 742 742 739 743 744 732 730 731 720 712 708 710 713 712 711 708 702 699 696 693 691 689 687 686 685 685 687 686 684 685 688 689 690 692 693 693 693 693 694 697 699 701 704 707 709 712 715 717 719 721 723 725 728 731 734 738 742 745 749 752 754 756 757 757 760 763 765 768 771 772 775 777 780 783 786 787
761 755 744 744 746 746 748 746 744 746 746 742 737 741 743 732 730 731 722 716 713 711 710 711 716 711 704 702 697 692 690 689 687 686 684 682 682 683 682 681 683 685 686 689 691 692 692 693 693 695 697 700 703 705 706 709 712 716 718 720 722 724 726 728 731 735 739 744 748 751 754 758 760 761 761 762 764 766 768 770 771 774 778 781 785 787
757 751 744 747 748 746 750 750 747 747 749 746 739 735 734 730 729 727 724 724 727 726 714 714 728 723 707 703 698 692 690 689 689 687 685 682 679 682 683 681 680 681 683 684 686 689 690 691 692 694 696 698 700 702 704 707 710 714 716 718 720 722 723 726 728 732 738 742 746 749 751 754 760 766 764 760 761 764 766 768 770 772 776 780 783 785
755 748 745 749 749 748 751 753 747 745 752 751 738 731 729 728 729 729 730 733 739 735 717 714 731 729 713 705 698 692 690 689 689 685 682 681 679 679 680 680 678 678 680 681 682 685 687 688 690 692 693 695 698 700 703 706 709 712 714 715 717 719 721 724 727 731 736 741 746 749 749 748 752 762 766 762 760 763 765 767 769 772 775 778 781 782
753 749 750 751 750 751 754 756 748 744 753 750 735 731 733 732 734 733 734 737 735 729 720 715 722 727 721 708 696 691 690 692 694 688 679 677 677 676 677 678 676 675 677 680 680 681 683 685 687 689 690 691 694 698 700 703 706 709 712 713 714 717 719 721 726 730 734 738 744 749 752 751 748 753 762 765 762 762 764 766 768 771 773 776 778 780
749 753 756 755 755 755 754 753 747 745 753 747 735 735 736 736 736 733 734 736 731 732 734 722 717 728 724 705 694 691 692 695 695 688 678 672 673 674 674 675 673 671 672 675 677 679 680 681 682 685 687 688 691 694 697 699 703 706 709 710 712 714 717 720 723 727 730 735 740 745 750 753 751 750 757 765 766 763 762 765 767 769 772 774 775 777
749 753 754 755 757 756 752 750 746 748 751 742 737 738 736 735 733 731 733 733 733 741 742 725 718 732 728 706 697 697 699 699 690 681 673 669 673 674 672 671 670 668 667 669 672 674 676 677 679 681 683 685 688 691 694 696 700 704 706 708 710 711 715 718 721 724 727 731 737 742 744 747 750 750 753 760 766 766 763 764 767 768 771 772 773 773
751 750 749 752 754 753 752 750 745 745 744 739 741 742 741 738 731 729 728 730 741 745 736 724 719 731 735 714 698 697 697 693 685 679 674 671 672 673 670 669 667 664 664 664 666 669 671 674 676 678 680 682 685 687 691 693 697 701 703 705 707 709 712 715 718 721 724 728 734 738 741 743 745 748 751 755 760 763 763 763 766 767 769 770 771 771
749 752 750 748 752 753 753 751 743 738 738 741 747 749 750 745 734 730 727 733 752 750 732 723 719 729 737 718 699 695 690 686 684 681 677 674 672 670 668 667 665 662 661 661 663 664 667 670 673 675 677 679 681 684 687 690 693 697 700 702 705 707 709 712 715 718 721 726 731 734 738 741 743 745 748 752 755 758 760 762 764 765 767 769 769 769
746 749 746 747 752 752 754 756 748 740 741 748 754 757 761 756 745 745 742 740 750 745 727 720 721 728 726 710 701 699 694 692 689 682 678 674 672 670 668 666 665 663 661 659 660 661 663 666 669 672 674 675 678 681 684 686 689 693 696 699 702 704 707 709 712 715 719 724 727 731 735 738 741 743 745 749 753 754 756 759 761 763 764 766 767 767
756 750 748 752 754 752 755 760 761 756 753 757 760 766 771 768 765 764 756 747 746 739 725 717 721 726 719 707 703 701 699 697 692 687 683 680 676 674 670 666 664 663 662 659 659 659 661 663 665 668 670 672 675 678 681 684 686 690 693 697 699 702 704 707 709 713 717 720 723 728 734 737 739 741 742 745 749 752 754 756 759 761 762 763 763 763
772 766 760 759 757 756 757 760 766 764 760 761 757 762 772 775 779 775 762 758 755 746 734 724 725 728 723 713 705 702 702 698 697 696 692 688 684 681 677 671 666 663 660 659 658 658 658 659 662 664 666 669 672 675 679 682 684 687 690 694 696 699 702 704 707 711 713 716 719 723 730 735 738 739 740 742 746 749 751 753 757 759 759 759 760 760
775 769 758 757 757 757 760 760 762 762 764 762 753 759 771 771 775 775 765 762 761 757 746 732 726 719 712 709 704 707 709 705 704 702 697 696 692 688 686 680 672 667 662 659 658 656 655 655 658 660 663 666 669 673 676 680 682 685 687 690 693 696 698 701 704 707 709 712 715 719 724 730 734 736 737 739 743 746 749 751 753 755 755 756 756 757
779 768 752 756 758 756 761 762 761 765 769 765 760 768 769 759 764 774 769 758 758 762 747 729 722 710 705 712 711 712 714 710 708 705 702 702 699 695 692 687 680 675 669 662 658 656 654 654 655 656 659 662 666 670 673 677 680 682 685 688 691 693 696 699 701 703 706 709 712 716 720 725 728 730 731 734 739 743 746 747 748 751 752 752 753 754
781 774 754 753 761 758 758 762 764 766 766 769 773 773 762 753 760 773 773 761 758 760 743 726 723 717 720 728 722 717 719 716 713 711 708 706 703 700 696 691 686 680 676 669 661 657 654 654 655 654 656 659 662 667 670 674 677 679 682 685 688 690 692 696 698 700 703 706 709 713 716 720 723 725 727 730 735 739 741 743 744 746 748 749 750 751
771 776 759 747 758 763 757 762 770 766 760 766 773 770 766 769 772 773 774 769 766 762 747 734 727 724 734 740 731 726 725 722 720 717 714 711 708 706 700 694 690 683 679 674 666 660 655 654 654 653 654 657 660 665 668 672 675 677 680 682 685 688 689 692 695 697 699 702 706 709 712 716 719 722 725 727 731 734 736 737 738 741 743 745 747 749
761 776 768 748 754 766 763 764 772 769 762 764 768 769 772 778 780 778 776 774 772 766 755 746 736 731 738 740 735 733 729 727 727 722 719 717 712 710 705 698 693 687 681 676 671 665 657 654 654 652 652 655 658 663 666 670 673 674 677 680 682 686 688 690 692 694 697 700 703 706 709 713 716 720 723 725 727 729 731 735 737 739 742 743 745 748
760 774 774 756 753 766 770 766 766 769 769 771 776 781 782 780 779 778 773 768 770 769 763 757 747 738 739 738 736 736 733 731 730 726 724 720 714 711 707 701 695 689 683 677 673 669 661 655 653 652 652 653 656 661 664 667 669 671 674 677 679 683 686 689 690 691 694 697 700 704 707 710 714 717 721 723 725 727 730 735 738 741 744 745 745 746
768 774 775 768 762 767 772 765 761 766 771 776 783 788 791 790 787 784 775 766 769 773 767 763 758 746 739 737 734 736 736 733 732 729 725 720 715 711 706 701 696 689 683 678 673 670 665 658 654 652 652 651 654 657 660 663 666 668 671 674 677 680 683 686 687 688 691 693 697 701 703 706 711 715 718 721 722 725 729 734 736 738 742 747 748 747
770 774 776 773 764 762 765 761 760 766 769 775 783 789 793 793 795 798 789 777 776 772 763 765 766 748 732 730 733 736 737 735 733 730 725 719 714 709 704 698 693 688 682 677 672 668 665 660 655 652 651 651 652 655 657 661 664 667 669 671 674 677 680 683 685 686 688 691 694 697 700 704 708 711 715 718 720 722 726 731 735 735 736 741 747 749
768 773 776 773 763 760 763 761 762 763 763 771 783 790 795 796 799 801 794 789 785 774 768 774 769 746 728 728 733 736 736 735 732 728 723 719 712 707 703 696 690 686 680 675 671 666 663 661 655 651 651 651 650 653 656 659 663 666 668 669 671 675 678 679 682 685 686 688 691 694 697 701 704 707 711 714 717 720 723 727 731 734 734 736 742 747
775 776 777 778 772 769 769 768 769 767 765 776 790 794 794 796 797 793 789 790 783 772 778 784 770 746 733 732 734 735 735 733 729 725 721 716 710 705 701 695 690 683 677 673 670 666 662 660 654 650 652 653 650 651 655 656 660 664 667 668 670 675 678 678 680 682 682 685 689 692 695 698 701 705 708 711 714 717 721 723 726 729 732 733 736 742
774 775 777 784 783 779 776 774 774 772 770 779 794 798 795 795 798 795 790 787 780 776 782 782 767 750 740 737 736 736 736 732 725 720 716 710 706 701 697 693 689 683 677 672 669 666 662 658 654 651 655 657 651 648 652 654 657 661 665 667 669 674 678 678 679 680 679 682 686 689 692 695 698 702 706 709 711 713 717 721 723 726 729 732 733 736
771 772 773 781 785 781 776 774 772 770 773 784 795 799 797 795 797 797 793 789 788 788 781 770 764 759 748 740 739 737 736 731 723 717 712 705 699 695 692 689 685 681 678 672 668 666 661 657 654 651 653 656 649 645 648 651 654 659 662 666 670 677 681 678 678 680 679 680 684 687 690 693 696 700 703 706 709 712 715 718 720 722 725 729 731 733
773 774 771 772 773 767 765 769 768 766 775 791 798 799 797 795 795 796 795 793 794 792 778 764 767 768 755 744 744 742 737 732 725 717 710 702 694 690 687 684 680 678 677 673 669 665 661 657 654 651 650 650 647 645 645 648 652 656 660 665 671 679 682 677 677 682 682 682 683 685 687 690 694 697 700 702 705 709 713 716 718 720 723 726 728 729
775 776 769 765 763 756 754 763 765 766 779 793 797 796 795 794 795 796 796 794 794 793 782 772 773 769 756 748 747 744 738 733 725 716 707 698 690 686 683 679 675 673 673 672 668 665 661 658 654 652 649 647 646 645 645 647 650 652 657 664 670 676 678 674 675 680 684 684 684 683 685 688 692 696 699 702 704 706 710 713 716 719 722 723 724 726
774 775 766 762 761 753 750 758 760 766 783 793 792 792 792 792 794 794 792 790 790 790 783 778 775 765 754 752 749 743 738 732 722 711 703 696 690 685 682 677 674 671 670 669 667 663 661 657 654 652 649 645 645 644 645 646 648 650 655 662 669 674 674 672 673 678 681 683 683 682 683 685 689 694 698 701 703 704 706 710 713 717 720 721 721 722
773 774 765 762 761 754 752 756 757 764 781 788 787 787 788 789 790 790 788 787 786 784 779 775 772 761 751 750 747 741 735 728 719 709 700 695 691 687 682 679 677 673 668 665 663 661 658 656 653 651 649 646 643 643 644 645 647 649 652 660 669 675 673 670 670 674 678 680 681 682 682 683 686 690 695 698 701 702 703 706 710 714 717 718 719 721
770 772 767 764 765 759 752 751 756 767 778 782 781 782 783 786 788 786 785 784 784 782 776 771 769 761 753 748 744 739 734 727 718 710 703 698 694 689 685 682 679 674 669 664 660 657 656 654 652 649 648 645 642 642 644 644 646 647 650 658 669 674 673 668 666 669 674 678 681 682 682 682 684 687 691 694 697 699 700 703 706 711 715 716 718 722
766 770 769 767 769 763 749 746 759 773 780 781 779 777 779 784 786 782 779 778 777 778 778 774 769 762 755 748 743 738 733 726 718 711 706 701 694 689 687 684 678 673 668 663 658 654 653 652 650 647 646 645 642 641 642 643 644 646 648 655 665 670 671 670 669 670 673 676 680 683 684 685 686 688 690 692 695 697 699 702 705 708 712 714 718 723
765 768 766 763 768 765 749 743 755 769 779 783 777 772 774 779 780 778 775 771 770 773 777 775 768 761 755 750 747 741 732 725 719 710 704 699 694 689 686 682 676 670 664 659 653 649 647 647 646 645 644 644 642 640 641 642 643 645 647 651 660 667 669 670 671 672 673 675 679 682 684 686 689 691 691 691 694 697 699 703 706 708 711 714 718 721
766 767 763 760 763 761 750 747 758 773 781 779 770 766 772 775 773 772 769 766 767 771 772 770 765 760 755 750 745 739 731 724 716 707 700 697 694 689 683 677 670 663 657 651 645 640 640 641 642 643 642 643 642 640 641 641 642 644 647 649 656 662 667 671 672 672 674 675 677 681 684 685 687 690 690 691 694 698 701 703 706 708 710 713 716 718
763 765 762 759 759 759 754 755 767 776 774 768 766 766 768 769 769 770 767 764 765 769 768 767 765 758 752 747 740 734 729 722 711 703 700 698 694 688 681 673 664 654 647 641 636 633 633 635 638 640 640 641 641 639 640 641 642 644 646 649 654 659 666 672 673 673 676 675 675 680 683 684 685 687 688 690 693 696 699 702 704 706 709 711 714 716
760 762 761 760 760 759 759 762 771 778 772 768 769 769 768 769 770 772 772 767 763 764 765 766 764 756 751 748 740 733 728 720 709 702 700 699 694 686 678 669 660 649 640 634 630 628 629 632 635 637 638 639 639 638 639 640 642 644 646 649 653 657 663 668 670 672 677 677 676 678 681 682 683 685 687 689 691 693 697 700 702 705 708 711 713 715
758 759 759 762 762 759 760 763 770 779 780 777 774 769 767 769 767 767 771 766 759 760 763 765 763 755 751 748 742 735 729 720 713 707 702 698 692 684 675 667 658 649 640 634 630 626 628 632 634 636 638 638 637 637 638 640 641 643 645 648 652 656 660 664 666 669 672 675 675 677 679 680 681 683 685 687 688 691 694 698 701 703 707 709 709 712
762 759 756 763 766 764 765 765 768 779 785 780 774 768 766 768 764 763 768 765 758 759 763 763 761 756 751 747 743 739 733 726 722 716 707 698 691 682 675 668 660 651 643 638 635 631 631 633 635 636 637 637 636 636 638 640 641 643 645 648 652 655 658 661 664 665 667 670 672 674 676 679 680 682 684 685 687 689 692 696 699 702 706 707 706 711
768 766 762 768 773 771 769 767 771 782 786 777 771 770 769 766 763 768 776 771 761 759 762 762 759 755 751 747 744 742 740 735 730 722 711 702 693 684 677 671 664 656 648 643 640 637 635 635 637 637 636 635 635 637 638 640 641 643 645 647 651 655 657 660 663 664 665 667 669 672 675 677 679 681 682 684 686 688 692 696 698 700 703 705 706 712
775 773 769 773 778 776 773 773 773 779 780 774 771 772 769 765 768 779 786 775 762 760 762 761 758 755 751 748 746 745 743 739 733 724 713 704 696 687 679 673 666 658 652 647 644 642 640 641 640 638 636 635 637 638 639 641 642 643 646 648 651 654 656 659 661 663 664 666 668 671 674 677 679 680 681 683 685 688 692 695 697 699 702 703 704 710
784 780 775 778 781 778 776 778 779 778 775 772 772 771 768 772 782 786 781 769 762 763 763 760 757 754 751 749 748 746 742 737 731 723 714 707 699 691 683 675 668 662 656 652 649 648 647 646 643 640 638 638 639 641 641 641 642 645 647 649 652 654 656 659 661 662 663 665 668 670 673 676 678 679 681 683 685 688 691 693 696 699 702 702 704 708
786 785 782 782 784 781 779 784 789 787 778 771 773 775 774 780 786 781 772 766 764 763 762 760 756 754 751 748 747 746 742 735 729 723 716 710 703 696 688 681 675 669 665 662 659 657 655 651 648 645 643 641 641 643 642 642 644 646 648 651 653 655 657 659 660 661 663 666 668 671 673 675 677 678 680 682 685 687 690 692 695 698 701 705 708 708
785 786 787 786 785 785 787 788 788 786 777 771 775 779 777 777 777 773 770 768 763 760 761 760 756 753 751 748 745 745 742 736 731 726 720 713 707 700 693 687 682 676 673 671 668 664 660 655 651 648 646 645 646 646 645 646 648 649 651 652 654 656 658 659 660 661 663 667 669 670 671 674 676 678 680 682 684 687 689 691 694 696 701 708 710 706
784 781 784 786 782 780 783 782 777 775 773 771 773 775 774 773 772 771 771 768 762 759 760 759 757 753 750 748 746 745 743 739 735 729 724 718 712 705 699 694 689 684 680 678 675 670 665 660 657 654 651 648 649 649 648 650 651 652 653 654 655 656 657 659 660 661 663 669 673 670 669 672 675 677 679 681 683 686 688 690 692 694 699 706 708 703
780 775 777 779 775 774 777 776 772 771 773 772 771 771 771 772 771 770 770 767 762 759 758 759 757 754 750 749 747 745 744 742 738 732 727 722 716 710 704 698 694 690 686 681 679 676 671 666 664 662 657 652 651 651 651 652 653 654 655 655 656 657 658 659 661 661 664 671 676 673 670 670 673 675 677 680 682 684 685 687 690 693 697 701 702 701
777 776 777 775 773 775 778 775 771 772 773 771 771 771 770 771 771 770 769 766 762 758 756 756 755 753 751 750 748 746 745 743 740 735 730 725 720 715 709 704 699 695 691 688 684 681 675 671 668 666 663 660 658 656 654 653 654 655 656 656 657 658 659 660 661 663 665 669 674 675 670 669 671 673 675 678 680 682 685 687 690 694 696 697 697 698
775 776 777 775 773 774 774 772 771 773 772 770 771 771 770 771 770 768 767 765 762 758 755 753 751 751 751 750 748 747 745 743 742 739 733 729 725 720 714 709 704 699 696 692 688 683 680 677 675 672 670 668 665 661 658 656 656 656 656 658 658 659 660 660 661 665 667 668 672 675 673 669 670 671 673 675 677 680 683 686 689 691 691 690 691 693
772 775 777 776 774 772 772 773 775 775 773 771 771 770 770 770 769 768 767 764 761 758 755 752 750 750 750 749 748 746 745 744 743 741 737 733 728 723 718 714 708 704 700 696 692 689 686 683 681 678 676 674 671 667 663 660 660 659 658 659 660 660 661 661 662 665 668 669 671 675 673 670 669 670 671 672 674 677 679 682 684 685 685 685 686 688
774 778 777 777 779 780 778 778 779 780 779 775 771 769 770 770 769 768 767 764 762 759 755 752 751 749 748 748 746 745 745 745 743 741 739 736 732 727 722 718 712 708 704 700 696 693 690 688 686 684 681 679 676 673 670 668 667 664 661 661 662 662 662 664 664 665 666 666 668 671 671 669 669 669 669 670 672 674 676 678 679 681 681 682 683 685
777 779 778 779 783 783 779 776 776 777 777 773 770 769 770 769 769 768 767 765 763 760 756 754 752 750 747 746 745 745 745 744 743 742 740 738 735 731 726 721 717 713 708 704 700 696 693 691 689 686 684 683 681 678 676 675 673 670 666 665 665 664 663 665 667 668 666 664 665 667 668 667 667 667 667 669 670 671 673 675 677 678 679 680 681 683